{"data":{"norad_id":56779,"epoch":"2026-09-20T22:00:03.000096Z","epoch_age_seconds":78889,"freshness":"FRESH","line1":"1 56779U 23078N   26263.91670139 -.00009875  00000+0 -68214-3 0  9993","line2":"2 56779  70.0008 192.1556 0001940 260.4140 275.1511 15.05343311  5767","mean_motion":15.05343311,"eccentricity":0.000194,"inclination_deg":70.0008,"raan_deg":192.1556,"arg_perigee_deg":260.414,"mean_anomaly_deg":275.1511,"bstar":-0.00068214,"rev_number":576,"period_min":95.659241946836,"perigee_km":549.10790557797,"apogee_km":551.7961981301,"semimajor_km":6928.589051854,"source":"CELESTRAK","updated_at":"2026-09-21T09:00:33.487468Z"}}